Location: Camaret
(48.2753°N, 4.5961°W)
Time: 06:09:38
(UTC+00:00)

X-37B - Pass Details

Date: 22 January 2021
Orbit: 383 x 391 km, 45.0° (Epoch: 27 February)

Event Time Altitude Azimuth Distance (km) Brightness Sun altitude
Rises 18:42:59 0° 243° (WSW) 2,269 6.0 -16.5°
Reaches altitude 10° 18:45:08 10° 234° (SW) 1,417 4.4 -16.9°
Maximum altitude 18:48:06 35° 166° (SSE) 647 1.6 -17.3°
Enters shadow 18:48:34 33° 145° (SE) 679 1.5 -17.4°
